Location: B�rgermoos
(47.6500°N, 9.0667°E)
Time: 09:32:51
(UTC+00:00)

A-11 Canister half - Pass Details

Date: 10 August 2021
Orbit: 1526 x 1683 km, 47.3° (Epoch: 20 September)

Event Time Altitude Azimuth Distance (km) Brightness Sun altitude
Rises 15:11:43 0° 291° (WNW) 4,920 12.3 34.2°
Reaches altitude 10° 15:15:21 10° 282° (WNW) 3,914 12.2 33.6°
Maximum altitude 15:23:38 31° 226° (SW) 2,572 11.6 32.3°
Drops below altitude 10° 15:31:42 10° 169° (S) 3,802 11.2 30.9°
Sets 15:35:13 0° 159° (SSE) 4,760 11.5 30.4°
